パンスターズ彗星

C/2018 P5 ( PanSTARRS )

English version
Home page
Updated on May 20, 2019

---------------------------------------------------------------------

・ プロフィール

発見日 2018年8月11日
発見光度 20.9等
発見者 Pan-STARRS 1 telescope (Haleakala)

・ 写真集

・ 軌道要素

Epoch 2019 Mar. 18.0 TT = JDT 2458560.5
T 2019 Feb. 26.19535 TT                                 MPCW
q   4.5758830            (2000.0)            P               Q
n   0.02166561     Peri.  131.63036     +0.97414399     +0.21322906
a  12.7435017      Node   216.24241     -0.22587319     +0.92644883
e   0.6409242      Incl.    7.25675     +0.00497787     +0.31020305
P  45.49
From 49 observations 2018 June 16-Oct. 8, mean residual 0".4.

・ 光度変化

        m1 = 10.5 + 5 logΔ + 10.0 log r

---------------------------------------------------------------------

軌道要素はM.P.E.C. 2018-U70に掲載されたものです。
光度グラフはComet for Windowsで作成したものです。

---------------------------------------------------------------------

Copyright(C) Seiichi Yoshida (comet@aerith.net). All rights reserved.